Time,TemperatureF,DewpointF,PressureIn,WindDirection,WindDirectionDegrees,WindSpeedMPH,WindSpeedGustMPH,Humidity,HourlyPrecipIn,Conditions,Clouds,dailyrainin,SolarRadiationWatts/m^2,SoftwareType,DateUTC
2013-04-14 00:43:00,28.0,27.0,-100.00,WNW,292,1.0,-999.0,94,-99.99,,,-99.99,0.000000,,2013-04-14 04:43:00,
2013-04-14 00:52:00,28.0,27.0,-100.00,WNW,292,1.0,-999.0,94,-99.99,,,-99.99,0.000000,,2013-04-14 04:52:00,
2013-04-14 01:00:00,26.0,23.0,-100.00,NW,315,0.0,-999.0,87,-99.99,,,-99.99,0.000000,,2013-04-14 05:00:00,
2013-04-14 01:42:00,26.0,23.0,-100.00,NW,315,0.0,-999.0,87,-99.99,,,-99.99,0.000000,,2013-04-14 05:42:00,
2013-04-14 01:52:00,26.0,23.0,-100.00,NW,315,0.0,-999.0,87,-99.99,,,-99.99,0.000000,,2013-04-14 05:52:00,
2013-04-14 02:00:00,25.0,22.0,-100.00,WNW,292,0.0,-999.0,88,-99.99,,,-99.99,0.000000,,2013-04-14 06:00:00,
2013-04-14 02:42:00,25.0,22.0,-100.00,WNW,292,0.0,-999.0,88,-99.99,,,-99.99,0.000000,,2013-04-14 06:42:00,
2013-04-14 02:53:00,25.0,22.0,-100.00,WNW,292,0.0,-999.0,88,-99.99,,,-99.99,0.000000,,2013-04-14 06:53:00,
2013-04-14 03:00:00,24.0,21.0,-100.00,WNW,292,0.0,-999.0,89,-99.99,,,-99.99,0.000000,,2013-04-14 07:00:00,
2013-04-14 03:42:00,24.0,21.0,-100.00,WNW,292,0.0,-999.0,89,-99.99,,,-99.99,0.000000,,2013-04-14 07:42:00,
2013-04-14 03:52:00,24.0,21.0,-100.00,WNW,292,0.0,-999.0,89,-99.99,,,-99.99,0.000000,,2013-04-14 07:52:00,
2013-04-14 04:00:00,22.0,20.0,-100.00,WSW,247,0.0,-999.0,93,-99.99,,,-99.99,0.000000,,2013-04-14 08:00:00,
2013-04-14 04:43:00,22.0,20.0,-100.00,WSW,247,0.0,-999.0,93,-99.99,,,-99.99,0.000000,,2013-04-14 08:43:00,
2013-04-14 04:52:00,22.0,20.0,-100.00,WSW,247,0.0,-999.0,93,-99.99,,,-99.99,0.000000,,2013-04-14 08:52:00,
2013-04-14 05:00:00,20.0,19.0,-100.00,WSW,247,0.0,-999.0,94,-99.99,,,-99.99,0.000000,,2013-04-14 09:00:00,
2013-04-14 05:43:00,20.0,19.0,-100.00,WSW,247,0.0,-999.0,94,-99.99,,,-99.99,0.000000,,2013-04-14 09:43:00,
2013-04-14 05:54:00,20.0,19.0,-100.00,WSW,247,0.0,-999.0,94,-99.99,,,-99.99,0.000000,,2013-04-14 09:54:00,
2013-04-14 06:00:00,18.0,17.0,-100.00,WSW,247,0.0,-999.0,94,-99.99,,,-99.99,0.000000,,2013-04-14 10:00:00,
2013-04-14 06:43:00,18.0,17.0,-100.00,WSW,247,0.0,-999.0,94,-99.99,,,-99.99,0.000000,,2013-04-14 10:43:00,
2013-04-14 06:52:00,18.0,17.0,-100.00,WSW,247,0.0,-999.0,94,-99.99,,,-99.99,0.000000,,2013-04-14 10:52:00,
2013-04-14 07:00:00,16.0,15.0,-100.00,SW,225,0.0,-999.0,94,-99.99,,,-99.99,0.000000,,2013-04-14 11:00:00,
2013-04-14 07:42:00,16.0,15.0,-100.00,SW,225,0.0,-999.0,94,-99.99,,,-99.99,0.000000,,2013-04-14 11:42:00,
2013-04-14 07:53:00,16.0,15.0,-100.00,SW,225,0.0,-999.0,94,-99.99,,,-99.99,0.000000,,2013-04-14 11:53:00,
2013-04-14 08:00:00,17.0,15.0,-100.00,South,180,0.0,-999.0,93,-99.99,,,-99.99,49.880001,,2013-04-14 12:00:00,
2013-04-14 08:42:00,17.0,15.0,-100.00,South,180,0.0,-999.0,93,-99.99,,,-99.99,49.880001,,2013-04-14 12:42:00,
2013-04-14 08:52:00,17.0,15.0,-100.00,South,180,0.0,-999.0,93,-99.99,,,-99.99,49.880001,,2013-04-14 12:52:00,
2013-04-14 10:00:00,30.0,22.0,-100.00,South,180,0.0,-999.0,73,-99.99,,,-99.99,336.399994,,2013-04-14 14:00:00,
2013-04-14 10:42:00,30.0,22.0,-100.00,South,180,0.0,-999.0,73,-99.99,,,-99.99,336.399994,,2013-04-14 14:42:00,
2013-04-14 10:53:00,30.0,22.0,-100.00,South,180,0.0,-999.0,73,-99.99,,,-99.99,336.399994,,2013-04-14 14:53:00,
2013-04-14 11:00:00,39.0,26.0,-100.00,South,180,0.0,-999.0,59,0.01,,,-99.99,518.520020,,2013-04-14 15:00:00,
2013-04-14 11:43:00,39.0,26.0,-100.00,South,180,0.0,-999.0,59,0.01,,,-99.99,518.520020,,2013-04-14 15:43:00,
2013-04-14 11:53:00,39.0,26.0,-100.00,South,180,0.0,-999.0,59,0.01,,,-99.99,518.520020,,2013-04-14 15:53:00,
2013-04-14 14:00:00,37.0,25.0,-100.00,SSE,157,9.0,-999.0,60,-99.99,,,-99.99,576.520020,,2013-04-14 18:00:00,
2013-04-14 14:43:00,37.0,25.0,-100.00,SSE,157,9.0,-999.0,60,-99.99,,,-99.99,576.520020,,2013-04-14 18:43:00,
2013-04-14 14:53:00,37.0,25.0,-100.00,SSE,157,9.0,-999.0,60,-99.99,,,-99.99,576.520020,,2013-04-14 18:53:00,
2013-04-14 15:00:00,36.0,26.0,-100.00,SSE,157,9.0,-999.0,65,-99.99,,,-99.99,454.720001,,2013-04-14 19:00:00,
2013-04-14 15:43:00,36.0,26.0,-100.00,SSE,157,9.0,-999.0,65,-99.99,,,-99.99,454.720001,,2013-04-14 19:43:00,
2013-04-14 15:53:00,36.0,26.0,-100.00,SSE,157,9.0,-999.0,65,-99.99,,,-99.99,454.720001,,2013-04-14 19:53:00,
2013-04-14 16:00:00,35.0,25.0,-100.00,SE,135,9.0,-999.0,67,-99.99,,,-99.99,301.600006,,2013-04-14 20:00:00,
2013-04-14 16:43:00,35.0,25.0,-100.00,SE,135,9.0,-999.0,67,-99.99,,,-99.99,301.600006,,2013-04-14 20:43:00,
2013-04-14 16:52:00,35.0,25.0,-100.00,SE,135,9.0,-999.0,67,-99.99,,,-99.99,301.600006,,2013-04-14 20:52:00,
2013-04-14 17:00:00,34.0,26.0,-100.00,ESE,112,8.0,-999.0,73,-99.99,,,-99.99,135.720001,,2013-04-14 21:00:00,
2013-04-14 17:43:00,34.0,26.0,-100.00,ESE,112,8.0,-999.0,73,-99.99,,,-99.99,135.720001,,2013-04-14 21:43:00,
2013-04-14 17:53:00,34.0,26.0,-100.00,ESE,112,8.0,-999.0,73,-99.99,,,-99.99,135.720001,,2013-04-14 21:53:00,
2013-04-14 18:00:00,33.0,28.0,-100.00,SE,135,8.0,-999.0,80,-99.99,,,-99.99,89.320000,,2013-04-14 22:00:00,
2013-04-14 18:44:00,33.0,28.0,-100.00,SE,135,8.0,-999.0,80,-99.99,,,-99.99,89.320000,,2013-04-14 22:44:00,
2013-04-14 18:53:00,33.0,28.0,-100.00,SE,135,8.0,-999.0,80,-99.99,,,-99.99,89.320000,,2013-04-14 22:53:00,
2013-04-14 20:00:00,31.0,30.0,-100.00,East,90,8.0,-999.0,95,-99.99,,,-99.99,22.040001,,2013-04-15 00:00:00,
2013-04-14 20:43:00,31.0,30.0,-100.00,East,90,8.0,-999.0,95,-99.99,,,-99.99,22.040001,,2013-04-15 00:43:00,
2013-04-14 20:52:00,31.0,30.0,-100.00,East,90,8.0,-999.0,95,-99.99,,,-99.99,22.040001,,2013-04-15 00:52:00,
2013-04-14 22:00:00,32.0,30.0,-100.00,East,90,11.0,-999.0,92,-99.99,,,-99.99,0.000000,,2013-04-15 02:00:00,
2013-04-14 22:42:00,32.0,30.0,-100.00,East,90,11.0,-999.0,92,-99.99,,,-99.99,0.000000,,2013-04-15 02:42:00,
2013-04-14 22:53:00,32.0,30.0,-100.00,East,90,11.0,-999.0,92,-99.99,,,-99.99,0.000000,,2013-04-15 02:53:00,
2013-04-14 23:00:00,33.0,30.0,-100.00,East,90,10.0,-999.0,87,-99.99,,,-99.99,0.000000,,2013-04-15 03:00:00,
2013-04-14 23:43:00,33.0,30.0,-100.00,East,90,10.0,-999.0,87,-99.99,,,-99.99,0.000000,,2013-04-15 03:43:00,
2013-04-14 23:55:00,33.0,30.0,-100.00,East,90,10.0,-999.0,87,-99.99,,,-99.99,0.000000,,2013-04-15 03:55:00,